• In Kazakhstan
  • List of Countries
  • For 7 days
  • Water Temperature
  • Weather Map
  • News
  • Weather Widgets
  • user-avatar
    Login

    Hourly Weather Solden

    Today, 15 November, Friday

    Time Temperature Precipitation Wind Pressure Humidity
    00:00 -9°C° 0.3 mm 2 mps 570 mmHg 95%
    01:00 -8°C° 0 mm 2 mps 570 mmHg 96%
    02:00 -7°C° 1.5 mm 2 mps 570 mmHg 96%
    03:00 -7°C° 1.5 mm 2 mps 569 mmHg 97%
    04:00 -7°C° 1.5 mm 2 mps 569 mmHg 97%
    05:00 -7°C° 3.4 mm 2 mps 568 mmHg 97%
    06:00 -7°C° 3.4 mm 2 mps 568 mmHg 97%
    07:00 -6°C° 0 mm 2 mps 568 mmHg 98%
    08:00 -6°C° 5 mm 2 mps 569 mmHg 98%
    09:00 -5°C° 5 mm 2 mps 569 mmHg 98%
    10:00 -5°C° 5 mm 2 mps 569 mmHg 98%
    11:00 -3°C° 5 mm 1 mps 570 mmHg 99%
    12:00 -3°C° 5 mm 1 mps 570 mmHg 99%
    13:00 -3°C° 5 mm 1 mps 570 mmHg 99%
    14:00 -3°C° 3.5 mm 1 mps 570 mmHg 99%
    15:00 -3°C° 3.5 mm 1 mps 570 mmHg 99%
    16:00 -3°C° 3.5 mm 1 mps 570 mmHg 98%
    17:00 -3°C° 3.7 mm 1 mps 570 mmHg 98%
    18:00 -3°C° 3.7 mm 1 mps 570 mmHg 98%
    19:00 -3°C° 3.7 mm 1 mps 570 mmHg 98%
    20:00 -3°C° 2.2 mm 1 mps 570 mmHg 98%
    21:00 -3°C° 2.2 mm 1 mps 570 mmHg 98%
    22:00 -3°C° 2.2 mm 1 mps 571 mmHg 98%
    23:00 -4°C° 1.3 mm 1 mps 571 mmHg 98%

    Tomorrow, 16 November, Saturday

    Time Temperature Precipitation Wind Pressure Humidity
    00:00 -4°C° 1.3 mm 1 mps 571 mmHg 98%
    01:00 -4°C° 1.3 mm 1 mps 572 mmHg 98%
    02:00 -4°C° 0.5 mm 1 mps 572 mmHg 98%
    03:00 -6°C° 0.5 mm 2 mps 572 mmHg 98%
    04:00 -6°C° 0.5 mm 2 mps 572 mmHg 98%
    05:00 -7°C° 0.3 mm 2 mps 572 mmHg 98%
    06:00 -6°C° 0.3 mm 1 mps 572 mmHg 97%
    07:00 -7°C° 0.3 mm 1 mps 573 mmHg 97%
    08:00 -6°C° 0.6 mm 1 mps 573 mmHg 97%
    09:00 -7°C° 0.6 mm 2 mps 574 mmHg 97%
    10:00 -6°C° 0.6 mm 2 mps 575 mmHg 97%
    11:00 -6°C° 0.2 mm 2 mps 575 mmHg 97%
    12:00 -4°C° 0.2 mm 1 mps 575 mmHg 97%
    13:00 -4°C° 0.2 mm 1 mps 576 mmHg 96%
    14:00 -4°C° 0 mm 1 mps 576 mmHg 96%
    15:00 -6°C° 0 mm 1 mps 575 mmHg 97%
    16:00 -6°C° 0 mm 1 mps 575 mmHg 97%
    17:00 -7°C° 0 mm 1 mps 575 mmHg 94%
    18:00 -7°C° 0 mm 1 mps 575 mmHg 91%
    19:00 -8°C° 0 mm 1 mps 575 mmHg 89%
    20:00 -8°C° 0.1 mm 1 mps 575 mmHg 90%
    21:00 -8°C° 0.1 mm 1 mps 575 mmHg 91%
    22:00 -7°C° 0.1 mm 1 mps 575 mmHg 92%
    23:00 -7°C° 0.3 mm 1 mps 574 mmHg 93%

    Day after tomorrow, 17 November, Sunday

    Time Temperature Precipitation Wind Pressure Humidity
    00:00 -7°C° 0.3 mm 1 mps 574 mmHg 95%
    01:00 -7°C° 0.3 mm 1 mps 573 mmHg 96%
    02:00 -7°C° 2.8 mm 1 mps 573 mmHg 96%
    03:00 -6°C° 2.8 mm 1 mps 573 mmHg 97%
    04:00 -6°C° 2.8 mm 1 mps 572 mmHg 98%
    05:00 -6°C° 4 mm 1 mps 572 mmHg 98%
    06:00 -4°C° 4 mm 1 mps 571 mmHg 98%
    07:00 -4°C° 4 mm 1 mps 571 mmHg 98%
    08:00 -4°C° 6.7 mm 1 mps 571 mmHg 98%
    09:00 -3°C° 6.7 mm 1 mps 571 mmHg 98%
    10:00 -3°C° 6.7 mm 1 mps 571 mmHg 99%
    11:00 -3°C° 7.7 mm 1 mps 571 mmHg 99%
    12:00 -3°C° 7.7 mm 1 mps 570 mmHg 99%
    13:00 -5°C° 7.7 mm 2 mps 570 mmHg 99%
    14:00 -5°C° 5.2 mm 2 mps 570 mmHg 99%
    15:00 -3°C° 5.2 mm 1 mps 569 mmHg 99%
    16:00 -3°C° 5.2 mm 1 mps 569 mmHg 98%
    17:00 -3°C° 3.2 mm 1 mps 570 mmHg 98%
    18:00 -3°C° 3.2 mm 1 mps 570 mmHg 98%
    19:00 -3°C° 3.2 mm 1 mps 570 mmHg 98%
    20:00 -3°C° 2.3 mm 1 mps 571 mmHg 98%
    21:00 -3°C° 2.3 mm 1 mps 571 mmHg 98%
    22:00 -3°C° 2.3 mm 1 mps 571 mmHg 98%
    23:00 -3°C° 1.3 mm 1 mps 572 mmHg 98%

    18 November, Monday

    Time Temperature Precipitation Wind Pressure Humidity
    00:00 -3°C° 1.3 mm 1 mps 572 mmHg 98%
    01:00 -3°C° 1.3 mm 1 mps 572 mmHg 98%
    02:00 -4°C° 0.3 mm 1 mps 572 mmHg 98%
    03:00 -4°C° 0.3 mm 1 mps 572 mmHg 98%
    04:00 -6°C° 0.3 mm 1 mps 572 mmHg 98%
    05:00 -7°C° 0 mm 1 mps 572 mmHg 95%
    06:00 -8°C° 0 mm 1 mps 571 mmHg 93%
    07:00 -8°C° 0 mm 1 mps 571 mmHg 90%
    08:00 -8°C° 0 mm 1 mps 572 mmHg 91%
    09:00 -7°C° 0 mm 1 mps 573 mmHg 91%
    10:00 -6°C° 0 mm 1 mps 573 mmHg 92%
    11:00 -6°C° 0 mm 1 mps 573 mmHg 93%
    12:00 -6°C° 0 mm 1 mps 574 mmHg 94%
    13:00 -4°C° 0 mm 1 mps 574 mmHg 95%
    14:00 -6°C° 0.3 mm 1 mps 574 mmHg 96%
    15:00 -6°C° 0.3 mm 1 mps 574 mmHg 97%
    16:00 -7°C° 0.3 mm 1 mps 573 mmHg 98%
    17:00 -7°C° 0.5 mm 1 mps 574 mmHg 98%
    18:00 -7°C° 0.5 mm 1 mps 574 mmHg 98%
    19:00 -7°C° 0.5 mm 1 mps 574 mmHg 97%
    20:00 -7°C° 0.6 mm 1 mps 574 mmHg 97%
    21:00 -7°C° 0.6 mm 1 mps 575 mmHg 97%
    22:00 -7°C° 0.6 mm 1 mps 575 mmHg 97%
    23:00 -7°C° 0.3 mm 1 mps 575 mmHg 97%

    19 November, Tuesday

    Time Temperature Precipitation Wind Pressure Humidity
    00:00 -8°C° 0.3 mm 1 mps 575 mmHg 97%
    01:00 -8°C° 0.3 mm 1 mps 575 mmHg 97%
    02:00 -8°C° 0.1 mm 1 mps 575 mmHg 97%
    03:00 -8°C° 0.1 mm 1 mps 575 mmHg 97%
    04:00 -8°C° 0.1 mm 1 mps 574 mmHg 96%
    05:00 -8°C° 0 mm 1 mps 574 mmHg 94%
    06:00 -8°C° 0 mm 1 mps 574 mmHg 93%
    07:00 -8°C° 0 mm 1 mps 574 mmHg 91%
    08:00 -7°C° 0.2 mm 1 mps 575 mmHg 93%
    09:00 -7°C° 0.2 mm 1 mps 575 mmHg 94%
    10:00 -6°C° 0.2 mm 1 mps 575 mmHg 96%
    11:00 -4°C° 0.2 mm 1 mps 575 mmHg 97%
    12:00 -4°C° 0.2 mm 1 mps 575 mmHg 97%
    13:00 -4°C° 0.2 mm 0 mps 574 mmHg 98%
    14:00 -5°C° 0.1 mm 0 mps 574 mmHg 98%
    15:00 -5°C° 0.1 mm 0 mps 574 mmHg 98%
    16:00 -5°C° 0.1 mm 0 mps 574 mmHg 98%
    17:00 -6°C° 0.1 mm 0 mps 574 mmHg 97%
    18:00 -6°C° 0.1 mm 1 mps 574 mmHg 97%
    19:00 -7°C° 0.1 mm 1 mps 574 mmHg 96%
    20:00 -8°C° 0 mm 1 mps 574 mmHg 95%
    21:00 -8°C° 0 mm 1 mps 574 mmHg 94%
    22:00 -9°C° 0 mm 1 mps 574 mmHg 93%
    23:00 -9°C° 0 mm 1 mps 574 mmHg 92%

    20 November, Wednesday

    Time Temperature Precipitation Wind Pressure Humidity
    00:00 -9°C° 0 mm 1 mps 574 mmHg 91%
    01:00 -10°C° 0 mm 1 mps 574 mmHg 90%
    02:00 -10°C° 0 mm 1 mps 574 mmHg 90%
    03:00 -10°C° 0 mm 1 mps 574 mmHg 90%
    04:00 -10°C° 0 mm 1 mps 574 mmHg 90%
    05:00 -10°C° 0 mm 1 mps 574 mmHg 90%
    06:00 -10°C° 0 mm 1 mps 574 mmHg 89%
    07:00 -11°C° 0 mm 1 mps 574 mmHg 89%
    08:00 -9°C° 0 mm 1 mps 575 mmHg 90%
    09:00 -7°C° 0 mm 1 mps 576 mmHg 91%
    10:00 -6°C° 0 mm 1 mps 577 mmHg 92%
    11:00 -4°C° 0 mm 1 mps 577 mmHg 93%
    12:00 -4°C° 0 mm 1 mps 577 mmHg 95%
    13:00 -4°C° 0 mm 1 mps 577 mmHg 96%
    14:00 -4°C° 0 mm 1 mps 577 mmHg 97%
    15:00 -6°C° 0 mm 1 mps 577 mmHg 97%
    16:00 -7°C° 0 mm 1 mps 577 mmHg 97%
    17:00 -7°C° 0 mm 1 mps 576 mmHg 96%
    18:00 -8°C° 0 mm 1 mps 576 mmHg 94%
    19:00 -8°C° 0 mm 1 mps 576 mmHg 93%
    20:00 -9°C° 0 mm 1 mps 576 mmHg 92%
    21:00 -9°C° 0 mm 1 mps 576 mmHg 92%
    22:00 -10°C° 0 mm 1 mps 576 mmHg 92%
    23:00 -10°C° 0 mm 1 mps 576 mmHg 91%
    Show more